Theta_e
311 310 310 311 311 312 313 313 314 314 314 315 315 316 317 317 317 318 319 319 320 320 320 321 321 322 322 322 322 318 312 307 305 304 302 304 312 319 318 318 319 321 317 307 307 304 302 303 304 305 303 303 301 302 301 302 301 302 296 293 292 293 291 294 293 294 296 293 296 296 298 296 295 298 298 300 300 298 300 300 302 303 302 303 308 311 311 315
310 310 310 310 311 311 312 313 313 314 314 314 315 315 316 316 317 318 318 319 319 320 320 321 321 321 322 322 321 315 308 306 302 301 301 310 318 319 318 317 319 318 313 306 303 302 301 300 301 305 301 300 302 300 305 300 302 297 294 293 292 293 294 296 296 296 293 295 296 296 297 296 296 296 299 295 298 299 298 300 301 301 304 304 305 309 308 309
310 310 310 310 310 311 311 312 313 313 313 313 314 315 315 316 316 317 317 318 318 319 320 320 321 321 322 321 320 311 313 305 302 298 301 314 320 317 317 317 319 314 305 304 302 302 301 300 299 301 302 299 299 299 303 299 300 296 294 293 294 294 294 294 295 296 295 296 295 296 297 295 297 297 300 295 296 297 297 299 300 299 301 303 306 306 307 309
310 309 310 309 310 310 311 312 312 312 313 313 314 314 314 315 315 316 317 317 318 319 319 320 320 321 321 321 318 314 306 303 297 298 304 315 319 316 317 317 317 308 305 304 303 302 299 300 300 301 300 298 298 299 299 299 299 296 294 294 294 293 293 295 294 297 297 297 296 295 296 295 299 298 297 298 295 297 300 301 300 299 301 303 305 306 307 306
309 310 310 309 309 310 311 311 312 312 312 313 313 314 314 314 315 316 316 317 317 318 319 319 320 321 321 320 314 309 305 299 296 298 303 317 318 314 315 316 316 307 305 302 302 301 300 300 300 299 299 295 297 298 296 297 297 295 295 295 294 293 293 297 295 296 295 297 295 296 294 297 298 297 296 297 294 295 300 301 301 301 303 302 303 305 305 306
309 310 309 310 309 310 310 311 311 312 312 312 313 313 314 314 315 315 316 316 317 318 318 319 320 320 321 317 309 307 302 290 298 301 310 316 316 315 315 315 313 308 304 305 303 303 302 300 300 297 295 295 295 294 295 296 297 294 295 294 294 295 294 297 296 296 295 297 296 296 297 297 296 297 299 297 296 300 305 305 303 302 303 304 304 304 304 305
309 309 310 310 309 310 310 311 311 312 312 312 313 313 313 314 314 314 315 315 316 317 318 318 319 320 319 313 309 306 300 296 298 304 311 315 314 314 314 309 310 307 307 305 303 302 300 298 298 295 295 294 294 294 294 296 296 295 293 294 296 297 294 298 295 296 296 296 296 298 297 295 297 294 299 296 300 302 303 304 304 303 303 304 303 305 305 305
309 309 309 310 309 309 310 310 311 311 312 312 313 313 313 314 314 314 314 315 316 317 318 318 319 319 315 309 306 302 299 296 299 303 310 312 305 306 308 306 306 307 304 301 301 301 301 297 296 295 294 293 293 295 295 295 296 295 294 295 297 295 297 298 297 296 297 297 299 296 295 297 299 297 298 297 301 303 303 304 303 304 304 303 304 303 304 304
309 309 310 310 310 309 310 310 311 311 311 312 312 312 313 313 313 314 314 315 316 316 317 318 318 319 313 307 303 298 297 298 302 305 305 303 301 304 307 304 305 305 303 303 301 300 301 296 296 296 293 293 293 296 294 294 295 295 296 295 297 297 298 298 296 297 297 298 296 295 296 298 298 299 295 298 301 302 302 302 303 303 302 302 302 303 303 303
309 309 310 310 310 309 310 310 311 311 311 312 312 312 312 313 313 314 314 315 315 316 317 318 318 317 307 306 302 294 297 301 304 304 301 300 302 305 305 303 305 305 304 302 304 303 301 298 299 297 298 294 294 294 294 293 294 295 296 297 296 297 296 297 295 297 298 296 296 294 295 297 298 295 293 300 301 301 302 302 303 301 301 302 302 303 304 303
310 309 310 310 310 309 310 310 311 311 311 312 312 312 313 312 313 313 314 314 315 316 317 317 318 310 307 303 298 294 300 306 306 303 301 301 304 303 302 302 302 303 305 303 301 302 301 301 300 297 297 296 295 293 295 296 296 296 295 296 296 296 293 294 295 296 296 296 296 296 295 297 296 295 294 299 302 301 300 301 301 301 300 300 302 302 303 303
310 309 309 310 310 310 310 310 310 311 311 311 312 312 312 312 312 313 314 314 315 316 317 317 313 308 305 300 295 298 299 306 304 303 304 304 303 301 301 301 302 304 305 304 302 302 303 301 300 297 295 297 294 295 296 297 296 295 294 292 294 294 294 295 294 296 293 294 298 298 294 292 293 294 300 302 300 300 299 299 300 300 301 300 301 301 302 302
310 309 309 309 309 309 310 310 310 311 311 311 312 312 313 313 313 313 314 314 315 316 316 316 310 309 303 297 299 302 306 307 302 300 303 304 302 301 303 302 303 303 305 305 303 303 302 302 301 299 296 297 295 293 295 297 294 295 294 290 293 293 291 295 293 295 294 295 297 299 286 292 294 299 301 301 299 299 298 297 298 299 300 300 300 301 301 303
311 310 310 309 310 310 310 310 310 311 311 312 312 312 313 314 314 314 314 314 316 315 316 314 309 306 301 297 302 303 305 307 299 302 301 301 303 302 304 305 304 305 305 305 301 302 302 301 303 299 300 298 295 298 296 293 293 291 291 290 289 287 290 295 293 293 294 295 297 296 286 289 295 299 300 301 299 297 295 296 297 299 300 300 300 301 301 303
311 310 310 310 310 309 309 310 310 310 311 312 312 312 313 313 314 314 315 315 315 316 314 313 309 302 297 299 303 307 310 304 302 300 300 303 301 300 302 304 303 303 303 305 302 300 302 302 302 300 297 296 297 295 292 291 291 291 289 289 291 286 289 293 294 293 290 294 296 294 287 290 293 295 299 300 299 298 295 296 297 298 299 300 300 300 301 302
311 311 310 310 309 309 309 309 310 310 311 312 312 313 313 313 313 314 315 315 315 313 312 308 308 303 296 296 303 310 304 300 299 300 301 303 302 301 301 302 303 304 304 302 302 302 302 303 298 296 296 295 296 292 291 290 290 289 288 286 286 289 289 290 291 292 292 291 294 291 285 289 292 297 298 301 299 298 295 296 297 299 300 300 300 300 301 301
312 311 310 310 310 309 309 309 310 310 311 311 312 313 312 313 313 315 315 314 310 308 307 303 306 305 296 303 302 300 301 298 298 300 301 303 303 302 302 302 302 303 303 303 303 302 300 299 294 295 296 295 291 290 288 289 287 288 289 286 287 284 287 286 293 292 291 290 288 291 288 289 292 294 296 298 299 297 295 296 297 298 299 300 300 300 300 301
312 311 310 310 310 309 309 309 309 310 311 311 311 311 310 313 311 308 312 310 309 306 307 306 304 301 298 299 298 298 296 298 299 299 300 302 302 302 303 301 299 301 301 299 299 299 297 296 294 294 294 293 294 292 286 283 285 285 286 285 287 288 287 286 286 290 290 291 287 289 289 289 292 294 295 297 298 296 295 296 297 297 298 299 300 301 300 301
312 311 311 311 310 309 309 310 309 310 311 311 311 309 312 311 307 310 306 306 302 297 295 298 297 292 295 299 297 295 297 299 298 299 302 302 302 300 299 299 302 299 296 293 296 296 296 294 294 292 290 291 291 290 287 289 287 287 287 287 286 284 286 287 290 292 289 287 287 288 287 288 291 292 295 296 297 295 295 296 297 298 298 299 299 300 301 301
312 312 311 312 310 310 309 310 310 310 311 309 306 303 301 300 299 300 301 302 300 303 300 302 302 296 294 295 296 298 299 298 301 300 302 300 302 300 297 299 297 297 295 293 295 293 291 292 291 290 291 290 290 291 291 290 289 289 287 287 287 287 287 291 291 290 291 288 288 289 289 289 290 292 294 296 296 295 295 295 296 297 298 299 300 300 301 301
313 312 312 311 310 310 309 309 310 310 310 307 304 299 296 300 293 293 296 300 301 295 298 300 298 297 297 297 298 300 298 296 302 299 301 303 299 300 295 296 294 293 293 291 292 292 291 290 291 290 291 292 290 291 290 290 289 289 288 287 287 287 285 290 288 289 291 286 286 290 288 289 291 294 295 296 294 293 295 295 296 297 297 299 299 299 300 301
313 313 313 311 310 310 309 309 310 310 308 305 301 300 298 300 298 297 295 294 299 295 296 297 295 297 298 297 298 300 298 295 297 298 302 300 298 294 296 294 292 291 293 292 291 292 291 290 289 290 290 290 290 290 290 290 289 288 287 287 285 287 286 288 286 287 289 287 286 289 286 289 292 294 295 294 294 295 297 297 296 296 297 298 299 299 300 300
313 313 312 311 310 310 309 310 309 310 306 300 299 298 298 301 301 302 299 293 294 295 296 295 296 296 296 299 301 299 295 294 295 297 299 300 297 296 295 293 293 293 291 294 291 291 289 290 290 290 291 291 288 289 289 288 287 287 287 285 285 287 283 282 288 285 289 288 286 286 285 289 294 294 294 295 295 296 299 298 298 298 296 296 297 298 297 298
313 313 312 311 310 309 309 309 310 307 302 300 299 301 301 299 301 302 297 294 294 296 295 297 298 299 297 298 302 299 296 296 295 294 300 298 296 295 295 293 291 289 291 291 290 290 290 290 289 289 289 291 290 288 287 287 287 288 287 286 285 285 285 283 285 288 289 289 287 286 287 290 292 290 292 295 294 294 296 297 297 298 300 299 299 298 299 298
313 313 312 311 309 309 308 309 305 303 298 299 301 303 297 297 300 302 297 296 292 295 296 297 297 299 298 299 299 298 296 295 296 297 298 298 294 294 294 293 291 291 291 290 290 288 290 288 289 289 289 288 289 287 287 288 286 288 289 288 287 287 285 286 287 285 285 285 285 284 283 287 289 290 290 293 294 294 296 295 295 297 297 297 297 297 298 298
313 312 312 311 310 309 309 301 298 298 296 298 301 298 294 295 300 299 296 289 286 296 292 292 301 294 304 295 298 298 296 294 297 299 302 301 299 296 292 291 290 291 290 290 291 289 289 287 288 290 290 286 287 285 286 287 286 285 286 288 288 286 285 285 284 284 281 281 285 286 281 281 291 290 292 293 292 292 295 295 295 296 296 297 296 296 296 296
312 312 312 311 310 310 301 296 298 295 294 297 298 298 296 300 302 299 291 286 282 295 291 295 294 295 300 296 296 298 289 293 297 297 298 298 297 301 292 292 291 291 292 293 289 288 288 287 286 287 288 287 285 286 287 288 286 285 286 287 286 285 285 284 284 283 282 286 287 285 286 282 282 289 292 291 290 291 292 294 294 295 295 295 295 296 295 295
312 312 312 311 310 309 301 300 298 297 295 298 298 296 298 298 298 299 289 275 276 300 292 290 295 302 298 294 297 293 293 291 294 295 297 298 298 296 294 292 292 293 290 290 288 291 288 287 287 285 283 285 286 286 288 289 286 287 285 287 286 285 285 284 283 282 284 280 282 283 285 281 283 289 291 290 288 290 291 291 293 294 294 293 293 294 294 295
312 312 312 311 310 309 303 302 299 297 299 298 295 297 297 299 297 295 287 275 286 290 304 292 299 296 294 295 294 291 292 292 291 292 294 297 297 295 292 293 292 291 289 290 290 288 286 287 286 286 284 286 286 285 287 288 286 289 287 287 286 284 284 284 282 281 281 279 281 281 283 280 280 286 289 290 288 288 290 292 293 292 291 291 291 293 294 295
312 312 312 311 308 305 301 300 300 299 297 295 295 296 297 296 295 286 278 271 291 287 294 295 294 292 294 292 291 292 291 290 291 292 295 295 294 296 290 292 293 291 291 290 289 288 286 286 284 284 285 285 285 287 285 288 289 288 289 286 284 284 282 281 282 280 280 279 282 279 281 281 276 285 288 287 288 288 290 292 291 291 291 291 291 292 293 294
312 312 311 310 302 302 300 296 299 298 296 295 295 297 295 296 286 281 273 283 294 290 292 292 289 292 290 291 290 288 290 290 290 290 290 293 291 293 293 289 292 289 286 288 287 286 286 285 285 286 288 286 288 289 286 285 285 287 286 284 284 280 279 280 280 278 277 279 278 279 279 281 275 282 289 291 290 291 291 288 288 288 288 289 291 292 294 295
312 312 311 307 304 301 298 295 298 297 295 295 299 295 293 283 284 278 278 298 285 290 290 288 288 290 290 289 289 288 290 288 290 290 290 290 290 289 290 290 289 288 288 288 288 286 284 286 286 287 288 289 289 288 287 286 287 288 286 285 281 280 281 278 280 276 278 278 278 276 278 277 278 283 288 290 291 292 292 290 289 288 288 290 292 293 294 295
312 312 311 307 303 298 297 298 299 297 296 297 296 295 287 282 274 282 284 287 285 290 288 292 289 288 290 289 289 286 286 289 289 289 288 287 289 291 289 289 288 288 287 285 285 285 287 281 284 287 287 290 290 285 286 285 286 286 285 283 281 278 275 272 276 275 278 279 272 277 279 276 284 287 291 290 291 293 292 291 290 289 289 290 291 292 294 296
312 312 307 306 303 302 298 297 297 298 297 296 293 288 285 275 277 289 285 287 285 286 288 287 286 287 288 288 288 288 287 287 288 288 289 286 287 287 288 288 286 288 286 284 287 285 285 286 285 287 287 290 289 288 287 286 286 285 283 284 282 280 275 272 276 274 275 277 278 275 275 278 279 284 290 291 292 293 293 292 292 291 292 292 293 294 295 296
312 310 306 304 301 298 297 296 296 298 296 292 290 286 278 277 283 282 285 286 283 287 286 286 287 286 286 285 285 286 289 286 287 287 288 287 287 287 287 288 287 287 287 286 284 283 283 285 286 284 285 287 287 287 288 286 284 284 284 284 283 281 283 278 279 278 276 276 276 275 278 283 283 290 292 292 291 292 293 292 291 289 291 292 292 293 294 295
310 304 305 300 301 299 297 296 296 296 294 290 285 281 279 283 281 286 286 294 289 287 285 287 286 286 286 285 283 286 289 286 286 287 286 286 287 287 289 289 286 287 287 288 287 285 281 284 284 286 287 288 288 288 288 287 283 284 284 283 282 283 282 281 276 274 273 273 275 280 279 283 288 290 290 291 291 292 293 291 290 289 291 292 292 293 295 295
303 302 299 298 301 298 297 296 298 296 292 288 284 280 284 284 290 289 295 290 291 290 286 286 286 287 284 285 286 284 286 288 285 286 286 286 286 287 285 286 288 287 284 289 285 287 285 286 283 285 284 284 283 286 287 287 286 285 282 282 283 283 282 280 276 275 274 273 276 276 276 278 279 280 289 290 289 289 290 289 289 288 292 291 291 293 295 295
300 300 301 298 300 297 298 297 297 293 290 285 281 287 284 285 288 291 290 286 289 290 289 287 287 290 285 286 285 284 286 286 286 285 284 285 288 291 288 287 286 287 287 284 287 285 286 284 283 280 284 285 284 287 287 288 288 286 284 286 282 279 278 278 276 273 273 274 275 277 276 277 280 282 286 286 287 287 288 289 288 286 289 290 291 293 295 296
300 299 293 298 297 297 297 298 296 290 286 281 282 283 285 284 288 287 290 291 290 291 287 288 287 285 287 285 286 282 285 285 285 285 285 286 286 291 289 290 286 285 283 285 287 285 287 285 284 281 283 284 287 287 283 284 286 286 286 285 282 282 280 278 279 277 276 274 273 276 276 279 283 283 285 286 286 287 288 287 287 286 289 289 291 293 294 296
297 294 290 296 297 299 298 298 291 288 283 279 283 284 285 285 288 286 286 290 288 288 287 289 286 286 284 285 284 286 284 285 285 285 285 287 287 289 289 287 288 283 285 284 285 287 286 285 283 283 284 283 283 285 284 286 282 282 284 282 282 281 279 279 276 278 277 274 274 272 273 281 286 288 287 287 287 287 287 286 287 286 287 290 292 293 295 296
298 292 288 296 297 298 298 293 288 283 281 285 282 283 283 284 289 286 288 286 288 285 289 290 288 287 286 283 283 284 284 283 284 285 284 285 285 286 288 289 287 285 286 285 285 286 284 283 284 282 281 282 284 281 281 281 285 285 285 283 284 279 277 276 276 275 275 276 274 272 274 281 287 291 289 289 291 288 288 288 287 286 287 290 293 294 295 296
294 286 288 296 296 298 294 285 285 285 282 282 283 284 283 293 286 287 287 286 288 288 285 287 285 288 284 286 286 284 284 282 283 284 284 285 288 286 285 286 288 288 286 284 285 286 285 285 284 281 284 284 280 281 280 280 280 281 284 283 283 281 281 279 275 275 273 275 274 277 273 279 290 288 291 293 291 287 288 289 287 287 287 290 293 294 296 297
294 286 291 294 295 297 290 284 286 284 282 284 284 285 287 287 286 286 286 286 286 288 286 285 286 287 287 287 282 284 285 284 283 284 284 283 283 282 281 282 286 285 286 284 283 283 287 284 281 283 282 278 280 281 280 276 280 282 281 280 280 281 281 281 281 279 277 273 274 273 272 280 290 289 290 293 292 288 289 289 288 287 288 290 292 293 295 296
288 285 288 294 296 293 288 280 281 282 284 284 283 284 286 287 286 284 285 286 287 285 286 285 284 286 287 284 285 284 286 284 286 285 284 282 284 282 281 283 286 286 286 287 286 287 284 284 284 281 283 283 279 279 280 280 281 281 282 281 281 278 275 274 274 275 277 275 277 276 274 282 291 287 291 290 288 287 288 288 289 287 288 289 290 292 295 296
286 287 286 288 294 291 284 286 285 284 283 283 283 281 283 284 286 289 288 286 287 286 285 285 287 287 284 284 285 285 286 287 284 283 283 281 282 283 281 281 282 285 284 284 287 289 286 284 283 280 278 278 279 281 284 282 281 282 280 279 279 280 275 278 278 277 275 276 277 275 278 284 290 291 290 289 289 289 289 288 288 289 288 288 289 291 293 296
285 282 285 285 286 285 285 284 284 284 284 284 282 283 285 283 286 284 288 287 289 285 285 286 282 287 284 284 283 284 284 282 284 283 283 283 283 283 281 279 281 285 284 285 287 287 283 279 281 285 284 284 286 285 281 282 280 279 279 280 279 280 278 281 281 277 277 276 273 278 280 283 284 287 288 289 289 288 288 289 288 289 288 289 290 290 292 295
290 284 283 277 286 285 283 286 282 283 282 287 281 284 281 283 285 285 288 285 287 287 283 285 284 284 283 285 284 283 283 282 280 282 282 283 280 283 281 282 282 283 285 286 285 283 279 282 281 278 280 285 282 281 281 282 281 282 279 279 281 279 278 278 278 278 281 277 277 281 281 279 282 286 287 288 289 288 289 289 289 289 289 288 290 290 291 292
286 286 288 288 284 279 281 281 285 283 284 285 283 285 283 283 283 283 286 286 285 287 286 283 283 286 287 285 285 282 282 281 281 282 282 281 283 284 284 283 284 285 286 285 285 285 282 281 279 278 280 282 280 280 280 280 280 281 281 281 279 280 278 276 277 281 279 279 280 280 277 280 283 286 288 288 288 288 288 288 288 288 288 288 289 289 290 292
290 287 286 291 284 285 285 285 286 284 283 283 282 284 282 283 282 285 285 283 283 283 286 283 283 285 286 287 285 283 282 280 280 282 282 282 283 283 282 283 284 286 285 284 284 281 283 281 274 275 277 278 280 280 279 278 278 277 279 280 281 280 278 279 279 280 279 280 282 283 281 281 284 285 287 288 289 289 288 288 287 287 288 288 288 288 289 291
286 287 284 288 286 286 286 286 285 284 281 284 280 282 283 283 283 285 283 284 280 283 286 283 286 284 284 284 285 283 284 286 286 282 282 283 282 283 284 286 283 283 284 283 283 279 282 280 277 275 277 278 276 274 275 277 277 276 280 280 280 280 280 280 280 280 278 277 278 279 278 278 284 287 287 289 289 287 286 286 287 288 288 287 287 288 289 290
295 298 293 286 283 285 286 285 284 283 281 282 281 283 284 284 284 287 285 288 286 283 285 283 286 283 284 284 285 286 288 287 287 288 286 286 284 287 286 284 287 282 283 281 280 279 281 279 275 277 278 279 274 274 274 272 273 273 274 278 279 278 276 278 277 280 278 277 278 276 276 278 284 288 287 287 286 285 286 288 288 288 288 288 287 287 288 290
294 295 296 291 285 287 285 285 285 284 279 283 284 284 284 284 286 287 283 287 288 288 287 287 287 285 282 282 283 287 290 288 287 285 288 289 290 288 288 287 289 285 282 283 282 280 281 279 277 278 277 278 276 273 274 273 275 278 280 283 281 280 281 280 281 281 281 282 279 277 280 286 290 288 285 286 285 287 288 288 287 288 289 288 287 287 288 290
Wind_Speed
4 4 5 6 7 7 8 8 9 9 9 9 9 9 9 10 10 10 11 11 11 12 12 12 12 12 12 12 11 8 5 4 8 7 10 3 5 9 12 14 14 14 16 7 7 4 4 7 7 8 1 1 4 1 2 2 4 2 2 3 4 2 3 2 3 2 3 6 6 5 2 7 9 5 5 7 8 9 9 10 10 8 9 9 5 5 6 7
4 5 5 6 6 7 7 8 8 9 9 10 10 9 9 9 10 10 11 11 11 11 11 12 12 12 12 12 10 6 3 1 4 7 6 5 8 10 12 14 13 13 14 5 9 7 4 5 5 5 0 1 2 1 2 2 3 2 1 2 5 1 3 1 1 3 4 6 7 7 4 4 8 6 5 9 10 8 11 11 5 6 5 4 4 3 6 9
4 4 5 6 6 7 7 7 8 9 9 9 10 9 9 9 9 10 10 11 11 11 11 12 12 12 11 12 9 4 3 1 3 5 4 7 9 10 11 12 12 10 6 5 2 3 3 2 2 1 3 1 5 2 3 3 4 2 3 3 2 2 2 4 4 4 5 8 10 9 4 2 7 6 3 6 12 12 12 8 3 4 4 3 4 7 8 9
4 4 4 6 6 6 6 8 9 9 9 9 9 9 9 9 9 9 10 11 11 11 11 12 12 12 11 11 8 3 3 2 1 2 1 8 9 10 10 10 11 7 2 3 1 2 3 4 2 2 2 2 1 1 2 3 3 2 3 3 2 2 4 2 3 4 5 4 8 8 6 9 4 2 3 6 10 12 8 4 4 8 9 9 9 9 8 9
5 5 5 6 6 7 7 8 9 9 10 10 10 10 9 9 9 9 10 10 11 11 11 12 12 12 12 11 5 2 2 3 2 2 2 8 8 10 8 9 9 5 3 3 2 4 3 4 2 4 2 1 1 1 3 2 4 1 2 3 2 1 4 1 2 1 4 3 6 6 8 8 4 7 8 7 7 11 5 3 3 6 9 11 11 11 8 9
6 6 5 6 7 7 8 8 9 10 11 11 10 10 10 9 9 9 10 11 11 11 11 11 12 13 12 6 3 2 2 3 1 1 5 8 8 9 5 9 7 5 4 0 1 4 1 3 3 2 2 1 2 2 3 2 3 2 3 2 1 1 6 2 1 1 4 7 8 8 3 7 8 9 7 9 14 12 7 6 8 10 10 10 9 9 8 7
6 7 6 6 7 8 8 9 9 10 11 11 11 11 11 10 10 10 10 11 11 11 11 11 11 12 13 2 2 3 1 1 1 1 6 9 7 7 3 5 6 7 4 3 5 1 3 4 3 3 3 3 1 1 2 3 0 3 2 1 2 3 7 2 7 2 7 8 9 1 3 9 8 12 3 8 13 13 15 12 11 11 9 6 7 8 8 7
7 7 7 7 7 8 8 9 10 10 11 12 12 12 11 11 11 11 11 11 11 11 11 11 11 11 10 1 2 2 0 1 2 1 6 7 5 7 2 2 9 4 8 6 4 1 0 6 5 4 2 0 3 3 2 2 2 2 3 1 2 2 6 6 6 9 9 9 6 2 5 8 6 8 7 13 12 8 7 5 5 5 5 5 6 7 9 9
8 7 8 8 7 8 9 9 10 10 11 12 13 13 12 11 11 12 12 11 11 11 11 10 10 11 1 2 1 3 2 2 1 4 5 3 2 5 5 3 7 5 3 3 4 1 2 2 3 3 3 4 3 2 1 2 3 1 3 3 6 7 6 7 8 7 6 5 2 4 7 9 7 5 10 15 8 2 3 4 2 5 6 8 9 9 8 9
9 8 8 8 8 9 9 10 10 11 11 12 13 13 12 12 12 12 11 11 11 11 10 10 10 8 2 1 1 4 2 0 1 2 3 2 0 3 7 5 6 4 2 5 4 4 3 3 2 5 6 7 2 2 1 3 2 1 5 7 9 8 7 4 4 4 5 6 2 5 8 10 4 1 6 5 3 3 5 5 3 4 9 9 8 7 7 7
9 9 8 8 8 9 10 10 11 11 12 12 13 13 13 12 12 12 11 11 10 9 8 9 9 6 1 1 2 3 1 2 1 1 1 1 5 6 6 4 3 2 3 4 5 4 4 6 4 4 0 3 6 3 3 2 1 1 3 8 9 4 3 5 5 6 6 3 2 5 11 10 3 4 7 2 3 2 6 8 9 9 10 8 8 7 6 6
10 10 9 8 9 9 10 10 11 11 12 12 13 13 13 13 12 12 11 10 10 8 7 7 5 1 1 0 4 1 1 1 2 2 4 2 4 3 2 2 3 3 3 2 3 2 1 4 5 2 2 5 2 3 3 2 1 0 2 4 2 3 3 3 3 2 2 2 5 6 12 3 4 7 8 3 1 4 7 11 11 9 8 8 7 5 5 4
11 10 10 9 9 10 11 11 12 12 12 13 13 14 14 13 13 12 11 9 7 8 6 6 3 2 2 3 1 2 1 2 3 2 5 4 5 2 3 4 4 3 4 0 2 0 0 3 4 6 3 2 3 1 4 2 1 2 3 1 5 4 5 7 3 4 5 1 8 8 8 1 9 10 5 4 3 5 10 13 11 9 6 6 6 5 6 5
10 11 10 10 9 9 10 12 12 13 13 13 14 15 15 14 13 11 10 8 8 7 6 4 2 2 2 2 2 1 2 1 3 1 5 1 2 3 3 4 4 3 4 4 3 0 1 3 1 8 3 1 3 4 3 1 2 3 1 2 2 7 2 5 2 4 6 1 5 7 5 10 4 6 5 2 2 7 14 14 11 8 7 6 5 5 6 6
11 11 11 10 9 9 11 12 12 13 14 15 15 16 15 15 13 10 8 7 6 5 4 4 2 2 3 0 1 2 4 1 1 2 2 0 2 3 2 3 5 5 4 3 2 1 1 1 2 2 3 1 3 3 2 2 1 2 2 1 2 2 4 3 4 2 4 0 3 6 6 7 13 12 2 2 3 8 13 13 10 8 7 6 6 6 6 7
11 11 11 11 10 9 10 12 12 13 14 15 16 16 15 14 11 9 7 6 5 3 1 2 1 2 1 4 2 5 2 4 2 2 1 2 1 2 2 3 3 3 0 3 1 1 1 0 3 2 2 3 1 1 2 3 3 1 1 5 5 3 8 11 5 0 2 6 3 2 8 13 9 1 4 3 7 9 11 12 10 9 8 7 6 6 6 8
12 12 12 11 10 9 9 10 12 13 14 16 17 15 14 11 8 6 5 1 2 1 1 2 1 1 4 2 1 3 4 2 2 2 1 3 1 2 4 2 2 3 4 3 1 4 1 3 1 2 2 3 1 1 4 3 1 2 2 2 2 6 7 8 4 4 1 2 7 5 7 14 16 17 16 13 8 8 10 10 10 9 7 7 7 7 8 9
12 12 11 11 10 6 8 9 11 13 15 16 16 14 10 8 4 3 3 1 0 1 2 1 3 3 5 2 5 3 3 2 1 2 1 1 1 3 1 2 2 2 1 1 3 4 3 2 3 1 1 1 0 1 2 5 4 3 4 4 3 5 8 12 10 3 7 4 7 9 12 19 17 15 14 12 8 6 8 8 9 9 10 9 8 8 10 9
12 12 11 11 7 6 7 9 10 12 14 16 15 11 6 2 1 1 2 1 2 2 2 3 4 4 2 4 3 3 2 3 1 2 2 1 3 3 5 3 4 3 1 1 1 2 2 1 2 2 3 1 2 2 1 2 1 4 4 4 5 6 6 7 8 4 6 9 10 11 10 15 18 17 16 12 6 6 8 8 8 9 9 10 10 10 9 10
11 10 11 8 7 6 6 8 10 10 13 11 7 4 2 2 2 2 2 1 6 3 1 1 3 3 1 1 3 2 1 1 3 1 0 0 2 3 2 0 2 2 1 3 2 2 3 3 3 3 0 2 2 1 1 2 1 0 2 5 6 8 12 10 8 1 4 10 9 8 13 16 18 16 16 13 8 7 9 9 9 9 10 10 10 10 11 12
12 12 11 8 8 6 6 8 9 9 9 3 5 3 3 3 2 1 2 6 1 1 2 3 2 1 1 2 2 5 4 2 1 2 1 1 0 3 1 2 1 3 1 1 2 2 2 4 2 3 4 3 3 4 3 3 2 4 4 5 6 6 8 5 5 3 1 7 10 9 14 16 16 14 13 9 5 9 10 10 10 12 11 10 11 13 13 13
12 11 9 9 8 6 6 7 7 10 3 0 2 4 4 2 2 1 2 5 2 2 1 0 1 2 0 2 1 1 0 2 3 4 2 2 1 2 2 2 1 4 2 1 3 2 2 4 3 3 4 7 5 4 2 3 3 4 5 4 5 3 4 9 3 1 3 7 12 8 15 16 16 12 9 6 6 6 6 6 10 10 11 10 11 12 12 11
13 12 10 9 8 6 6 7 7 7 2 3 3 3 3 2 2 1 1 1 6 2 3 2 4 5 2 0 2 3 4 6 4 5 2 1 3 1 2 3 2 0 0 1 4 5 3 2 4 4 4 6 3 3 4 2 3 4 4 3 4 4 6 4 2 3 6 5 11 12 15 15 11 6 7 6 5 5 5 6 9 8 10 12 13 13 13 15
13 11 11 10 7 6 5 6 8 8 3 4 5 5 1 1 1 2 1 4 5 4 4 3 2 3 5 3 5 6 3 1 2 5 2 2 2 3 1 2 3 2 3 0 1 4 3 3 3 4 2 4 3 5 4 4 3 6 6 5 5 4 3 3 7 11 14 5 4 11 12 9 1 2 4 3 2 3 8 7 9 9 8 9 10 10 10 14
13 13 12 10 8 4 3 6 4 2 2 1 5 1 1 1 1 1 2 3 2 4 2 3 4 4 4 2 1 3 2 1 0 3 1 2 5 3 2 1 1 3 2 2 1 2 3 2 2 4 3 2 3 3 6 4 3 2 6 6 4 4 7 6 7 12 6 3 3 8 6 2 3 4 8 7 3 7 6 7 10 8 9 10 12 17 17 16
14 14 13 11 8 5 2 2 1 1 1 4 1 1 2 1 1 2 1 1 4 1 3 5 5 2 4 3 2 2 5 3 2 2 1 3 3 1 4 2 1 2 4 3 2 2 2 2 4 3 4 2 3 2 0 3 2 4 2 3 2 3 4 6 7 5 5 4 3 2 2 8 2 7 7 4 4 8 6 6 7 7 9 13 16 16 16 17
15 14 14 13 11 8 3 4 3 1 2 2 2 2 3 1 0 1 2 2 5 5 7 1 2 1 1 2 1 3 3 3 1 2 1 1 1 1 3 2 2 2 2 1 1 2 4 3 3 1 4 3 2 2 4 6 1 2 3 1 1 3 6 6 4 3 6 4 6 2 2 5 10 7 1 1 6 9 9 9 9 10 14 16 17 16 15 18
17 15 14 14 13 11 3 3 1 2 2 2 2 2 2 0 0 2 1 4 3 5 4 3 1 2 1 1 1 1 3 1 4 3 2 1 2 3 2 4 3 2 3 3 5 4 3 5 6 3 1 2 2 1 5 5 3 2 2 1 4 2 4 3 2 2 3 4 2 2 0 3 5 7 5 3 7 6 8 7 8 11 14 15 16 16 18 22
17 16 16 15 13 8 4 1 2 3 1 1 2 2 0 1 2 1 1 4 1 2 2 5 1 1 3 1 3 1 1 1 2 3 2 1 4 2 3 1 2 4 2 2 4 2 2 1 4 5 2 2 0 0 2 7 3 3 3 4 3 3 1 1 1 1 1 2 1 4 2 4 10 10 7 3 3 6 7 8 8 11 13 13 15 16 19 17
18 17 17 15 9 4 1 2 5 2 2 1 1 1 1 2 1 3 2 8 1 1 3 3 4 4 3 7 3 3 4 1 2 1 1 1 2 2 4 2 2 2 3 2 3 2 1 1 1 2 2 1 0 3 1 4 4 4 5 5 4 3 3 2 2 1 2 3 1 5 3 3 6 6 5 6 6 5 7 7 10 14 17 16 14 14 15 15
19 18 18 18 7 4 5 2 4 3 2 1 1 1 1 1 2 2 11 5 4 2 2 3 4 2 8 8 5 1 1 1 2 0 3 2 3 3 3 1 2 2 1 2 3 2 2 1 2 1 1 2 1 1 1 0 2 2 2 2 4 2 3 2 1 1 2 2 4 1 2 2 5 4 2 1 2 2 4 8 12 14 16 16 15 14 16 15
20 19 20 13 7 6 6 3 2 3 2 2 2 3 2 4 1 12 5 4 3 4 5 4 2 3 6 3 2 6 5 2 1 3 5 3 4 5 6 4 5 2 2 2 1 3 3 3 0 1 1 3 2 3 2 1 2 4 3 4 4 3 2 1 2 2 1 4 3 2 4 4 10 10 12 14 6 1 2 6 9 11 14 15 15 16 14 14
20 18 21 9 10 5 3 4 4 4 4 4 4 2 3 3 12 12 1 3 1 3 2 4 5 4 5 5 5 2 3 3 2 1 2 1 2 3 2 2 2 2 3 2 1 0 1 3 2 2 1 3 3 3 0 1 2 3 1 3 4 4 3 3 1 2 4 3 1 4 2 5 8 9 7 7 2 2 5 6 7 9 12 13 14 14 14 13
21 19 14 9 9 5 5 5 3 5 5 3 4 4 1 4 13 11 14 4 1 3 4 4 4 4 5 5 1 6 3 2 4 2 2 2 2 3 3 3 5 3 1 2 1 1 3 2 3 6 2 4 3 2 2 1 0 1 1 2 1 1 1 4 3 5 5 8 1 3 2 3 5 2 2 1 2 4 5 5 5 8 10 10 12 12 13 13
22 17 11 7 4 2 7 5 5 6 4 5 4 7 12 19 2 7 6 4 1 1 4 3 4 4 3 2 1 4 2 2 1 5 3 5 3 2 4 5 7 1 2 3 2 0 3 4 3 4 2 1 3 1 2 3 2 2 0 3 1 0 1 3 2 3 4 6 6 3 3 1 4 8 7 3 5 8 6 5 7 9 9 11 11 12 11 12
16 7 10 6 9 6 7 6 6 5 5 6 7 7 20 11 5 3 4 6 4 5 6 4 2 3 1 0 1 4 1 1 3 2 1 5 1 2 1 2 8 11 5 4 4 3 1 2 4 2 1 1 2 1 1 3 2 2 2 1 1 1 1 1 3 3 4 2 7 1 5 5 7 10 4 4 4 7 5 6 6 8 8 10 10 11 12 13
9 9 9 6 8 8 9 8 5 5 1 6 9 17 13 0 4 6 2 8 5 12 6 5 4 6 4 5 3 5 4 2 3 4 2 3 3 9 3 4 1 5 5 1 2 2 1 1 2 2 4 2 2 2 3 4 3 2 1 2 5 1 2 0 3 1 3 3 3 1 5 7 4 2 4 4 5 10 9 9 7 8 10 11 10 12 12 13
9 8 6 7 9 10 10 9 8 3 3 6 14 17 4 9 2 3 4 7 4 1 4 6 1 5 3 3 3 7 4 4 5 4 1 6 1 6 5 5 2 1 2 3 1 2 2 4 3 2 3 3 1 3 3 3 2 3 1 4 1 1 2 2 1 4 5 5 4 3 5 7 5 5 3 5 5 11 11 9 8 9 11 11 11 11 12 12
5 7 4 5 7 12 9 12 6 5 5 5 11 13 3 1 1 5 6 3 1 6 7 8 4 1 3 4 3 2 8 6 7 4 2 4 3 6 6 5 3 2 1 1 1 2 1 2 1 1 2 1 3 3 3 4 4 4 1 3 1 1 0 1 1 0 2 7 6 4 3 8 3 3 2 5 2 9 10 9 6 4 8 7 9 9 9 10
10 4 5 4 9 10 11 11 8 2 4 13 13 8 2 6 3 3 3 2 3 6 4 5 3 3 2 1 5 4 6 1 7 3 2 0 4 2 5 2 7 3 2 4 1 2 2 1 2 4 2 1 3 7 5 7 6 4 4 1 1 2 2 1 0 2 2 3 2 5 8 4 2 3 4 5 1 5 7 5 3 2 4 6 9 8 8 8
2 4 2 4 8 11 10 8 8 10 9 4 6 3 1 2 1 3 1 2 2 5 3 4 7 6 7 5 3 3 3 5 4 4 5 2 6 1 4 6 8 8 3 4 1 4 2 2 3 2 3 6 2 5 4 4 2 3 5 3 6 6 2 1 2 3 1 2 2 1 9 9 9 2 5 4 2 3 4 6 3 1 2 6 7 8 7 6
10 6 3 7 9 15 12 11 6 6 3 8 9 3 3 1 0 3 3 1 2 2 2 3 1 3 4 4 3 8 4 3 4 0 4 5 2 1 1 2 5 10 8 5 3 1 1 3 0 3 2 1 4 3 2 2 1 2 3 1 2 1 0 2 3 2 1 1 3 1 3 10 2 2 2 3 3 2 4 5 4 0 1 4 6 8 6 4
11 4 5 4 8 9 10 3 4 6 9 6 3 7 3 3 5 2 5 3 3 2 1 2 6 7 6 4 3 3 8 3 8 6 4 5 3 1 3 3 4 5 3 2 4 3 3 1 1 3 2 2 2 2 2 2 1 2 2 2 4 5 3 2 1 2 2 4 3 2 5 11 2 4 4 3 4 2 4 4 2 0 0 4 5 7 6 4
4 4 2 2 1 3 10 11 12 14 11 3 3 6 1 3 2 4 5 4 6 6 5 6 2 4 2 4 5 8 7 2 7 7 3 4 3 3 3 3 4 7 4 5 4 7 3 3 2 1 2 2 1 1 1 1 1 3 2 5 2 5 7 4 5 0 2 8 6 5 7 7 3 3 3 3 4 5 4 1 1 0 0 3 4 5 6 4
6 2 3 1 2 4 11 4 8 11 13 16 11 9 6 4 5 7 6 7 3 4 4 6 4 6 4 3 5 2 7 6 1 4 3 3 2 2 4 1 4 2 1 3 4 4 2 2 5 3 3 4 3 4 2 3 6 3 1 4 5 7 10 5 3 3 4 2 8 4 8 11 8 6 6 5 4 10 1 2 1 2 1 4 4 5 6 4
5 7 3 2 1 2 4 2 2 3 10 12 11 11 11 8 3 3 5 4 6 3 1 3 2 3 4 4 3 3 7 2 2 1 5 4 2 2 2 3 1 2 1 2 3 1 2 2 3 5 6 8 4 2 1 5 4 4 4 9 10 7 2 1 3 2 8 5 9 14 8 12 18 19 14 7 7 10 12 6 4 3 1 3 5 5 5 5
6 7 9 6 1 7 6 2 3 3 7 10 7 7 15 15 7 0 7 6 8 9 3 2 4 7 5 7 6 5 2 3 1 2 6 4 2 1 3 1 1 2 4 2 2 3 2 2 7 7 8 5 6 1 2 3 3 4 7 7 10 12 9 9 9 8 6 5 13 7 12 10 15 14 13 12 9 12 11 5 3 3 3 2 5 6 6 6
8 4 8 11 13 14 12 12 13 13 4 6 9 5 11 15 14 13 6 5 3 6 8 1 3 8 14 16 9 6 7 3 4 6 4 1 5 2 2 1 3 1 2 1 2 2 3 4 2 5 9 6 4 4 4 2 7 7 9 8 11 14 12 16 19 8 8 8 15 1 5 6 16 15 16 14 10 10 14 10 6 5 7 6 4 7 7 7
2 4 3 9 7 7 21 20 24 17 16 11 1 9 9 16 19 17 7 6 4 4 13 11 13 16 13 12 13 7 9 5 8 3 6 6 6 6 2 1 4 4 3 1 2 0 2 3 2 1 4 5 4 3 3 6 4 4 10 13 12 15 17 19 18 11 14 16 16 10 6 16 17 19 19 18 9 10 12 6 5 6 6 5 4 6 8 7
9 9 4 6 1 5 12 3 7 14 11 16 11 15 15 16 21 15 1 10 5 4 3 11 11 9 7 10 11 13 15 17 11 10 6 10 2 4 6 5 6 2 2 6 5 3 2 2 7 3 1 5 2 2 2 5 4 9 9 11 13 14 13 15 14 11 8 13 20 14 12 17 21 18 17 15 8 6 8 8 8 7 5 5 6 7 8 8
2 10 11 12 11 6 8 11 9 14 11 11 13 16 10 19 19 13 10 9 17 13 14 23 17 11 13 13 14 19 14 10 7 12 14 18 14 12 9 5 11 10 10 4 2 1 2 1 3 1 1 3 2 1 2 1 4 6 13 10 11 11 10 10 12 13 11 16 5 2 8 13 18 8 5 7 6 7 10 7 4 4 5 5 6 8 8 8
3 6 3 12 14 13 13 12 12 11 14 16 19 22 14 24 13 8 11 10 13 15 18 24 19 14 7 13 19 22 11 10 7 3 7 4 4 5 2 6 14 13 10 9 3 5 6 5 4 3 2 4 1 1 2 3 4 11 15 21 20 18 14 2 11 7 20 15 5 7 12 13 5 2 2 3 5 8 9 7 5 5 5 6 6 8 8 7
Wind_Direction
328 335 339 335 328 328 332 339 341 340 338 338 339 341 341 342 342 342 344 342 341 340 339 338 338 340 340 341 341 345 330 49 33 31 54 46 291 315 329 332 333 331 327 316 348 44 33 36 27 349 174 354 6 280 356 32 349 260 250 297 260 349 266 96 276 260 26 290 303 298 40 307 293 314 334 310 249 231 262 269 272 248 254 258 280 278 301 309
322 325 330 331 327 327 326 332 338 335 333 333 335 336 337 336 337 337 340 339 338 337 337 335 334 336 339 337 337 339 344 19 69 60 50 338 327 335 336 337 338 342 324 334 14 26 23 39 26 354 117 93 314 43 280 76 315 300 173 253 314 262 43 296 353 289 277 292 310 296 286 271 289 348 333 319 294 292 292 284 263 271 235 227 231 253 305 319
308 314 328 331 334 325 323 326 333 332 330 329 329 330 332 332 332 334 335 336 334 334 334 330 331 332 334 336 331 323 265 129 234 16 7 350 332 340 340 341 346 347 353 330 23 27 41 100 24 257 44 143 24 52 330 47 306 64 275 276 274 33 326 257 264 273 265 304 297 309 343 303 285 297 313 271 299 292 272 284 277 280 312 290 297 310 315 316
299 307 321 327 329 322 320 332 333 332 328 327 325 324 326 326 327 329 331 331 331 330 330 328 327 329 331 333 324 295 241 210 344 335 35 335 336 344 343 345 351 341 266 74 117 103 134 132 91 32 114 53 86 287 273 20 282 89 241 261 23 54 303 95 224 260 291 287 287 299 313 292 290 281 268 290 305 282 262 222 263 310 313 315 317 318 324 317
299 306 319 322 326 324 327 328 331 330 329 324 325 322 320 320 321 323 327 328 328 326 326 325 325 326 330 334 318 257 181 242 82 258 5 328 345 340 349 357 354 341 341 150 180 103 153 79 131 68 20 120 59 230 51 37 23 225 285 11 26 114 264 62 257 73 296 286 287 286 294 293 314 249 236 247 252 277 341 59 314 301 310 312 314 311 312 307
288 301 309 315 319 323 323 326 329 329 327 326 323 323 320 320 320 321 325 326 325 324 322 323 322 326 331 344 271 225 233 317 96 62 327 331 343 337 360 8 350 327 242 89 343 353 119 40 165 108 115 148 39 301 71 22 331 261 146 260 261 231 283 3 285 75 292 289 285 289 288 305 273 278 256 241 241 261 295 324 301 296 300 303 298 287 287 297
292 290 299 306 310 319 320 323 327 328 326 325 323 322 320 320 319 321 323 324 322 321 322 320 322 327 334 323 283 249 258 52 209 32 338 334 344 347 0 7 7 351 335 31 17 82 41 97 95 99 115 102 118 8 72 337 335 272 313 87 240 222 247 293 297 313 279 280 276 324 294 271 279 292 83 251 255 264 281 295 298 295 297 288 289 295 290 283
285 289 291 296 307 312 318 320 325 326 325 323 323 321 321 317 320 318 320 322 322 320 321 320 322 329 350 302 276 228 261 133 95 23 333 337 1 357 360 341 8 313 36 30 312 113 119 52 95 172 84 31 108 206 55 253 165 213 250 125 268 257 261 290 297 289 285 272 279 245 254 255 257 275 318 271 273 285 292 305 288 293 289 276 258 276 290 292
277 290 292 295 301 307 310 315 321 322 323 322 323 321 319 319 318 318 317 319 322 320 319 321 321 331 344 301 280 283 201 90 28 347 332 342 354 22 26 33 356 26 71 13 341 195 243 101 122 246 137 154 162 161 131 276 151 273 324 312 277 274 292 302 297 267 264 281 177 230 251 264 258 296 254 260 284 294 277 273 274 304 295 293 289 283 278 284
271 281 290 291 298 303 305 310 315 320 320 322 321 320 317 317 316 317 315 318 319 321 319 317 324 330 323 196 282 276 94 237 26 344 338 263 30 66 53 34 1 357 316 352 351 8 50 161 109 160 104 87 164 138 50 257 38 313 288 286 285 290 310 299 266 279 280 273 247 286 299 293 153 217 278 154 187 265 282 279 261 267 291 290 283 286 281 269
273 276 282 287 293 303 305 309 314 317 319 320 319 318 318 315 315 311 315 313 317 319 321 317 334 330 202 136 271 258 122 176 48 30 356 231 52 39 20 359 5 10 64 41 49 357 94 118 140 127 178 89 163 119 228 66 319 272 305 286 270 278 263 262 263 259 308 254 209 264 276 285 235 196 252 113 167 276 299 298 298 298 299 295 294 291 289 274
272 274 277 284 291 298 303 307 310 314 316 318 318 316 315 314 310 310 309 314 309 321 321 322 349 341 131 332 234 308 203 72 118 50 37 31 70 52 21 19 350 7 298 86 39 359 296 134 172 212 124 183 142 121 161 144 275 69 300 312 333 302 231 185 286 302 313 301 317 293 282 214 171 214 223 184 215 289 295 297 299 296 293 298 300 294 287 283
270 273 274 280 290 296 301 307 309 310 312 315 316 315 310 310 307 305 306 306 307 316 322 340 342 290 284 251 124 77 200 131 156 110 63 58 110 91 71 64 57 24 351 339 107 247 169 168 233 99 102 155 105 332 102 204 157 206 151 351 289 212 220 178 276 230 260 331 319 310 320 218 200 221 184 166 282 299 298 301 301 299 294 294 296 292 289 281
267 271 273 276 284 292 303 305 307 308 309 312 314 312 309 304 304 301 299 293 305 306 322 346 13 274 262 266 106 130 145 127 192 281 30 237 218 87 83 60 72 44 18 70 57 188 238 272 136 94 119 41 111 128 179 146 229 265 48 237 357 323 312 146 334 315 276 16 327 332 295 298 285 209 205 181 275 301 305 305 298 294 291 288 284 284 280 272
263 269 271 275 282 292 299 303 304 305 307 310 312 312 308 304 301 298 292 292 292 318 346 326 294 251 235 68 96 98 125 173 159 39 342 256 151 168 93 70 58 48 43 54 135 250 278 185 196 154 91 73 127 174 182 159 52 303 272 249 159 316 295 137 100 8 299 77 327 284 253 278 303 298 268 189 263 304 302 302 296 289 284 283 282 272 260 261
257 263 268 271 278 288 296 300 302 304 307 311 311 310 306 301 297 291 292 297 315 31 246 242 136 292 288 246 122 119 167 218 166 79 47 310 359 19 67 89 95 81 313 95 33 184 280 353 50 13 138 172 185 339 269 181 157 6 74 294 303 300 310 320 135 196 62 327 271 245 287 302 287 351 309 256 309 307 299 295 296 297 285 277 272 271 262 262
250 253 262 267 271 282 295 299 301 304 309 312 313 308 303 297 297 291 303 2 356 226 196 309 128 211 265 74 104 199 199 122 66 164 97 25 339 121 143 132 76 88 71 127 246 273 5 252 280 216 13 55 9 245 301 260 314 144 130 310 281 284 316 302 133 137 299 294 294 238 257 261 275 295 298 300 300 304 291 289 297 300 299 288 276 267 258 255
248 257 260 261 265 270 282 296 300 306 312 313 316 309 301 310 353 290 186 170 240 207 110 134 232 277 222 96 208 173 67 128 146 77 43 45 33 124 173 138 132 101 155 307 181 247 318 226 245 22 148 115 22 317 334 316 325 292 312 310 290 269 231 268 295 51 331 287 268 278 256 269 282 293 294 295 298 282 278 283 292 292 289 287 280 274 268 260
236 251 256 262 255 252 277 290 301 307 313 319 314 296 273 274 26 88 71 224 198 204 225 173 178 202 330 164 64 83 113 74 125 219 134 150 46 91 86 73 92 157 171 298 129 269 340 196 239 205 232 1 52 30 348 359 145 258 256 278 278 292 295 284 294 35 7 311 289 267 271 297 299 297 296 296 284 260 267 269 264 264 265 269 266 264 261 255
219 235 247 246 226 245 272 288 299 308 322 331 343 327 223 224 190 192 117 131 231 253 46 136 159 17 82 267 148 54 43 196 163 64 130 81 209 162 66 250 102 161 220 259 338 62 328 252 264 278 40 123 155 177 57 105 285 118 197 239 248 263 278 275 266 339 1 303 267 266 288 288 287 288 289 294 287 255 257 255 252 251 253 254 256 256 258 259
207 215 230 215 219 241 267 284 298 308 324 6 317 290 236 196 212 281 212 227 141 49 210 210 211 271 322 85 118 167 151 150 353 129 108 192 353 195 158 194 149 224 100 336 278 44 258 269 233 102 106 116 134 136 122 122 172 239 263 245 279 237 279 287 295 93 22 8 292 302 301 288 281 285 285 290 260 256 246 250 249 256 258 259 262 266 265 264
206 207 210 201 212 233 263 281 301 305 20 317 277 255 301 282 341 349 358 270 140 172 350 143 126 214 115 252 33 326 127 117 193 151 116 238 174 240 115 239 172 273 86 242 219 228 244 264 98 99 96 100 105 128 145 224 217 197 255 282 278 264 240 269 36 147 230 321 284 324 313 293 290 297 289 265 248 258 264 260 269 275 276 277 276 279 284 285
205 208 186 193 204 229 254 282 294 309 348 289 243 230 247 4 298 276 266 217 270 105 213 183 190 217 204 26 223 236 174 203 206 166 146 256 161 292 157 198 196 89 212 236 304 320 297 140 149 118 146 127 109 141 154 163 227 240 233 260 299 355 357 327 119 29 298 279 294 318 300 290 292 273 264 258 227 265 270 265 268 264 269 276 285 296 297 290
203 192 180 185 197 220 253 287 299 290 225 244 270 242 7 289 326 295 308 257 304 239 200 217 242 155 189 180 177 176 193 162 176 176 53 228 194 161 172 113 127 186 204 117 239 259 286 66 71 153 190 211 180 163 187 219 257 194 246 261 280 315 316 218 315 329 301 259 267 278 266 272 235 210 238 194 123 275 271 263 260 257 251 267 273 271 261 277
190 182 177 177 184 206 260 308 279 223 90 269 241 249 234 291 319 18 265 278 188 272 88 263 168 230 157 100 87 202 164 101 275 37 357 276 153 168 97 79 248 219 152 147 170 243 231 122 145 163 168 194 216 230 208 224 277 292 208 247 287 314 293 300 327 335 316 243 159 341 326 289 157 245 258 272 247 264 256 255 267 291 313 315 308 301 299 297
183 175 173 172 179 170 55 293 160 87 110 237 314 345 290 288 357 342 283 285 266 158 57 239 150 196 125 117 69 194 109 240 65 60 38 8 340 272 129 150 295 254 149 169 305 325 23 108 215 198 183 168 220 253 215 189 286 289 87 244 266 279 299 306 325 347 305 311 47 324 312 304 291 291 293 309 302 288 284 261 279 304 317 311 299 299 302 304
178 170 172 172 174 149 145 220 99 145 199 240 45 304 276 296 80 191 281 233 263 174 158 347 357 169 32 93 224 161 202 174 356 124 135 330 198 342 237 133 144 74 68 155 225 186 150 158 158 215 194 223 244 248 179 189 289 282 65 96 103 291 297 302 295 198 263 324 289 324 316 298 305 304 50 44 309 288 283 291 321 324 308 304 306 304 308 312
177 171 172 175 171 178 209 102 162 197 237 345 301 305 308 328 272 253 227 299 264 86 134 215 261 2 24 110 310 246 11 79 153 154 33 340 278 126 265 198 206 141 148 186 279 70 191 160 195 163 181 216 258 332 138 193 234 351 140 348 320 307 278 284 219 249 286 323 253 132 254 273 257 282 185 229 284 284 286 299 301 302 303 310 316 315 317 314
178 173 169 172 177 156 96 161 140 213 98 264 328 287 342 177 256 281 237 246 217 82 359 81 252 88 72 244 116 45 167 47 318 65 290 192 31 280 191 174 139 105 70 242 259 106 286 296 235 169 180 256 100 80 167 160 250 113 121 118 98 112 105 164 88 139 262 269 264 115 16 305 291 286 291 160 234 295 321 319 310 304 306 317 327 325 319 315
178 173 169 153 112 111 109 73 228 136 117 192 247 278 72 254 155 204 198 242 137 201 85 97 166 177 157 149 177 92 191 85 49 134 52 154 56 67 48 357 122 136 185 86 262 25 23 233 276 237 239 51 98 61 200 253 308 324 269 230 172 135 114 79 70 82 241 237 105 109 75 23 298 293 304 333 342 322 316 314 317 315 324 331 335 323 321 319
178 171 167 143 162 174 122 235 223 125 152 162 176 132 233 38 213 176 232 204 348 113 64 160 165 100 151 171 182 71 349 4 155 199 139 170 106 84 144 139 105 145 136 209 231 129 171 35 242 267 34 128 324 173 113 47 309 312 284 288 253 166 152 133 133 91 275 287 109 168 34 17 277 297 309 125 137 292 314 311 311 317 322 331 330 326 325 320
177 170 162 161 148 146 170 203 136 148 133 169 171 133 159 201 13 219 220 346 236 168 167 167 24 170 166 4 40 161 164 137 228 206 196 181 173 187 189 230 161 244 225 192 179 102 232 191 28 10 254 251 176 256 139 224 211 243 253 250 302 326 322 331 148 279 216 313 133 102 327 269 218 240 290 305 315 273 277 278 301 314 323 330 325 322 322 316
171 165 162 155 133 151 190 134 132 127 133 171 128 171 171 188 240 197 162 212 216 70 194 53 142 160 158 133 210 120 335 190 134 118 89 93 234 211 38 307 13 265 277 83 268 271 164 66 301 158 185 206 237 272 174 189 173 310 283 328 346 348 4 305 297 213 268 112 173 149 184 237 276 273 277 306 311 241 261 266 286 322 332 326 318 316 315 317
169 158 166 165 164 145 127 133 134 135 134 145 170 101 54 218 242 113 188 230 90 336 51 93 105 63 164 192 118 169 170 205 179 152 243 146 191 230 191 219 176 162 91 114 263 18 286 227 179 172 193 132 217 297 1 346 9 61 275 301 50 163 347 313 333 329 331 301 37 214 262 258 325 16 114 43 248 250 255 260 308 336 334 323 321 319 321 320
165 162 144 144 111 110 127 136 141 150 138 152 147 179 188 227 85 175 188 172 270 34 70 323 110 131 197 297 240 283 309 150 183 138 189 171 206 209 196 184 208 258 121 184 163 137 214 279 69 1 29 153 185 137 309 103 131 114 318 286 239 77 246 253 4 282 323 328 302 159 233 326 255 328 314 257 247 256 247 293 334 341 340 337 328 329 332 335
160 157 142 158 172 164 138 139 136 140 164 182 163 196 219 205 188 147 200 111 120 147 136 98 95 178 226 241 349 225 27 311 163 218 194 213 310 211 115 177 177 196 168 193 134 195 99 229 72 103 131 75 38 242 65 308 292 121 195 137 69 19 235 300 117 83 120 160 245 211 283 261 271 256 259 136 215 270 282 321 340 344 347 336 326 332 343 348
162 136 174 166 171 152 138 140 134 118 192 207 184 218 218 346 178 167 191 167 176 128 153 166 205 170 194 216 183 181 183 133 187 195 213 143 252 197 203 221 45 181 280 347 181 285 249 75 110 165 167 67 329 310 72 21 309 130 236 116 111 20 341 188 309 178 213 232 275 91 278 298 330 345 157 218 256 313 327 342 341 347 353 341 335 340 344 353
151 174 159 166 167 149 140 139 126 94 161 190 214 230 76 202 226 159 103 108 90 334 134 208 253 187 232 176 206 162 195 212 150 156 237 190 292 111 145 156 160 230 107 297 287 135 135 259 136 328 69 103 192 229 143 77 6 294 32 132 240 192 221 120 248 329 332 297 299 245 274 242 231 270 314 312 326 320 332 344 345 350 353 343 334 340 349 358
130 143 194 176 137 144 146 134 118 134 171 205 229 237 194 274 83 170 197 148 92 138 198 214 202 219 114 191 108 20 160 188 158 194 183 177 214 178 171 140 150 137 276 181 189 125 260 245 144 150 133 79 198 234 244 141 81 55 172 139 22 268 310 220 26 309 170 281 333 281 45 304 192 248 274 283 308 317 325 338 342 342 341 336 328 334 344 357
142 153 246 128 161 140 148 133 115 154 213 215 216 225 75 197 204 254 253 204 175 160 210 172 225 145 197 179 157 153 220 289 175 190 221 158 219 350 187 344 147 163 113 312 81 289 132 128 274 109 257 201 213 194 226 159 166 163 196 177 128 63 338 44 350 231 262 290 301 308 317 292 302 179 235 270 275 316 324 311 319 323 331 336 321 331 342 2
142 127 218 152 165 145 138 130 140 182 218 313 355 249 92 223 156 243 171 294 83 1 153 181 156 193 169 131 246 189 159 190 182 194 200 232 202 225 164 136 148 136 169 72 153 203 139 189 227 119 185 223 208 22 360 342 355 207 186 198 176 152 167 237 249 83 342 224 241 271 282 287 283 117 212 237 201 316 309 304 301 290 333 329 318 315 344 0
156 195 195 155 194 151 142 154 208 142 171 234 230 148 244 166 217 207 145 273 5 157 355 112 348 149 147 187 102 155 152 172 200 228 227 211 198 329 29 319 156 153 150 171 190 147 308 100 211 214 204 206 52 47 5 337 291 13 301 195 140 88 186 168 280 166 220 209 24 18 313 274 173 174 204 194 163 292 305 294 281 229 316 322 309 310 328 351
177 179 26 156 223 171 140 164 138 171 209 217 52 300 275 300 235 196 168 225 191 195 94 212 192 163 240 151 173 147 177 189 165 201 182 196 258 81 338 311 144 156 27 80 71 202 154 154 185 258 86 78 142 147 158 1 270 202 190 98 155 193 198 244 279 121 199 125 200 162 220 262 201 171 229 203 216 281 254 277 311 188 262 312 318 311 310 327
86 104 81 357 199 284 166 172 190 201 214 214 163 220 67 248 193 176 211 206 180 159 182 172 327 251 157 121 138 173 187 211 205 173 259 183 202 83 334 215 226 186 201 190 181 180 182 201 208 303 288 181 150 157 158 103 202 236 221 175 177 80 76 97 107 43 273 198 189 159 258 273 121 170 185 195 242 249 236 259 300 304 246 291 319 312 296 304
115 61 80 44 5 241 196 217 205 187 203 212 200 201 185 213 218 229 190 204 170 162 138 222 185 152 139 157 141 82 193 204 70 241 74 195 119 37 21 50 321 250 340 328 333 148 250 157 163 192 220 263 255 277 280 193 199 181 228 143 185 155 133 147 202 162 249 171 168 218 251 258 285 235 211 191 297 316 235 139 228 188 220 274 289 296 293 274
182 163 154 54 317 332 298 92 48 200 204 207 221 223 201 217 228 230 207 250 180 175 214 107 13 141 122 141 144 181 182 330 191 177 164 191 179 54 346 345 315 308 325 317 323 195 172 40 257 223 225 235 254 54 78 78 96 199 192 188 182 188 167 52 79 162 227 160 197 225 234 291 295 290 297 307 327 308 313 326 345 328 228 226 258 272 274 267
139 172 144 159 52 250 263 244 199 179 213 176 210 158 208 209 202 69 192 221 192 171 163 187 160 161 212 165 174 181 186 139 334 128 196 156 41 9 45 10 348 276 272 216 317 93 96 219 225 223 251 258 62 107 158 213 230 189 156 200 185 178 180 174 188 219 127 112 266 222 226 236 262 274 284 295 307 308 304 309 325 311 307 267 263 267 264 254
186 207 171 180 159 189 202 238 208 214 227 186 215 175 205 201 203 208 143 255 37 210 183 291 210 220 167 177 156 180 170 163 133 198 121 29 128 163 119 114 210 247 229 197 336 228 172 212 301 145 251 279 280 235 205 233 238 241 220 185 182 189 176 199 220 208 147 213 249 117 166 212 267 273 282 287 284 283 292 301 308 296 286 277 255 258 254 242
82 105 146 178 215 195 198 195 191 186 194 187 265 216 215 203 208 208 183 128 158 229 220 219 201 202 187 172 167 190 158 169 234 186 192 171 172 141 127 66 231 139 200 162 188 266 122 252 125 210 286 283 254 218 181 213 250 241 230 223 208 182 202 206 224 209 202 234 248 273 261 264 268 275 280 279 293 292 289 297 287 267 248 252 248 250 248 239
189 150 163 223 273 187 196 172 160 181 201 193 203 216 214 209 215 196 131 173 171 213 85 258 230 177 182 191 181 201 199 197 188 184 198 149 133 227 203 195 127 82 202 189 172 262 194 248 111 153 292 266 259 13 206 225 228 265 248 226 218 214 213 216 228 234 233 269 263 263 286 282 272 259 260 272 292 289 285 259 248 253 228 223 249 248 243 236
234 205 148 150 184 192 167 180 174 179 188 193 216 227 219 223 225 199 217 200 194 180 182 211 211 152 198 190 206 218 210 185 175 197 175 168 196 190 167 201 145 153 173 172 195 161 224 222 73 123 264 272 45 217 178 56 259 252 274 237 212 191 211 208 206 213 171 226 213 194 259 256 259 255 255 254 255 260 258 252 222 229 213 193 235 249 243 237
18 334 189 148 190 166 176 172 188 168 204 196 201 213 197 220 212 179 224 227 229 212 194 202 193 166 195 198 213 216 194 173 187 53 155 170 17 103 182 142 158 152 167 177 131 152 190 150 166 161 211 255 237 157 281 282 264 270 250 234 205 200 202 162 222 207 207 199 167 213 237 227 244 103 198 217 209 238 254 247 225 229 225 198 209 240 246 233